�������l�o���
Date,Time,MP-1(��Sv/h),MP-2(��Sv/h),MP-3(��Sv/h),MP-4(��Sv/h),MP-5(��Sv/h),MP-6(��Sv/h),MP-7(��Sv/h),MP-8(��Sv/h),����,����(m/s),���J
2020/01/13,00:00,0.699,1.003,0.667,1.253,0.883,0.404,0.706,0.670,���k��,2.7,��
2020/01/13,00:10,0.698,1.002,0.666,1.254,0.883,0.402,0.707,0.672,�k��,2.6,��
2020/01/13,00:20,0.699,1.003,0.667,1.253,0.883,0.403,0.704,0.672,�k��,2.7,��
2020/01/13,00:30,0.698,0.999,0.666,1.254,0.884,0.405,0.705,0.671,�k��,3.3,��
2020/01/13,00:40,0.698,1.003,0.666,1.254,0.883,0.404,0.705,0.671,�k��,2.9,��
2020/01/13,00:50,0.698,1.004,0.665,1.255,0.884,0.403,0.705,0.671,�k��,2.7,��
2020/01/13,01:00,0.699,1.002,0.667,1.254,0.881,0.402,0.705,0.671,�k��,3.1,��
2020/01/13,01:10,0.698,1.002,0.667,1.252,0.883,0.404,0.704,0.671,�k��,3.0,��
2020/01/13,01:20,0.698,1.005,0.666,1.253,0.884,0.403,0.706,0.670,�k�k��,3.3,��
2020/01/13,01:30,0.699,1.003,0.667,1.253,0.884,0.402,0.705,0.670,�k�k��,3.6,��
2020/01/13,01:40,0.696,1.004,0.669,1.254,0.881,0.404,0.706,0.672,�k�k��,3.1,��
2020/01/13,01:50,0.699,1.001,0.666,1.254,0.883,0.404,0.705,0.670,�k�k��,3.1,��
2020/01/13,02:00,0.698,1.006,0.666,1.254,0.882,0.402,0.704,0.671,�k�k��,2.6,��
2020/01/13,02:10,0.699,1.002,0.670,1.253,0.882,0.403,0.707,0.673,�k��,3.1,��
2020/01/13,02:20,0.698,1.002,0.668,1.256,0.884,0.403,0.706,0.672,�k�k��,3.1,��
2020/01/13,02:30,0.700,1.004,0.668,1.254,0.883,0.404,0.706,0.671,�k�k��,3.0,��
2020/01/13,02:40,0.697,1.003,0.667,1.254,0.884,0.403,0.706,0.671,�k�k��,3.0,��
2020/01/13,02:50,0.701,1.005,0.667,1.253,0.883,0.404,0.708,0.672,�k�k��,2.7,��
2020/01/13,03:00,0.700,1.005,0.668,1.255,0.882,0.404,0.706,0.671,�k�k��,3.0,��
2020/01/13,03:10,0.701,1.007,0.669,1.255,0.885,0.405,0.705,0.673,�k�k��,3.1,��
2020/01/13,03:20,0.699,1.006,0.668,1.254,0.883,0.403,0.707,0.672,�k�k��,3.5,��
2020/01/13,03:30,0.698,1.005,0.670,1.255,0.883,0.404,0.706,0.672,�k�k��,3.4,��
2020/01/13,03:40,0.700,1.005,0.669,1.255,0.884,0.404,0.709,0.671,�k�k��,4.1,��
2020/01/13,03:50,0.698,1.005,0.668,1.255,0.884,0.405,0.707,0.672,�k,3.8,��
2020/01/13,04:00,0.702,1.002,0.668,1.256,0.884,0.405,0.707,0.671,�k�k��,2.6,��
2020/01/13,04:10,0.698,1.006,0.669,1.254,0.884,0.402,0.706,0.670,�k�k��,3.8,��
2020/01/13,04:20,0.701,1.004,0.670,1.255,0.883,0.403,0.708,0.672,�k�k��,5.2,��
2020/01/13,04:30,0.699,1.002,0.669,1.254,0.884,0.404,0.707,0.672,�k�k��,4.6,��
2020/01/13,04:40,0.699,1.004,0.668,1.255,0.883,0.404,0.708,0.672,�k�k��,4.9,��
2020/01/13,04:50,0.699,1.007,0.667,1.257,0.884,0.404,0.708,0.672,�k,4.5,��
2020/01/13,05:00,0.699,1.005,0.670,1.255,0.884,0.404,0.706,0.672,�k�k��,4.5,��
2020/01/13,05:10,0.699,1.003,0.668,1.255,0.883,0.405,0.708,0.671,�k�k��,4.9,��
2020/01/13,05:20,0.701,1.004,0.668,1.255,0.884,0.403,0.706,0.671,�k�k��,5.2,��
2020/01/13,05:30,0.699,1.004,0.670,1.254,0.884,0.403,0.707,0.671,�k�k��,5.5,��
2020/01/13,05:40,0.700,1.002,0.668,1.256,0.883,0.405,0.707,0.672,�k�k��,4.9,��
2020/01/13,05:50,0.700,1.006,0.669,1.254,0.883,0.404,0.708,0.672,�k�k��,4.6,��
2020/01/13,06:00,0.699,1.004,0.669,1.254,0.885,0.405,0.708,0.670,�k�k��,4.9,��
2020/01/13,06:10,0.698,1.005,0.669,1.253,0.885,0.403,0.706,0.671,�k�k��,5.5,��
2020/01/13,06:20,0.699,1.004,0.668,1.254,0.886,0.405,0.708,0.671,�k�k��,4.9,��
2020/01/13,06:30,0.700,1.005,0.666,1.257,0.882,0.404,0.708,0.672,�k�k��,5.2,�L
2020/01/13,06:40,0.699,1.006,0.670,1.255,0.882,0.405,0.709,0.671,�k�k��,5.3,�L
2020/01/13,06:50,0.700,1.005,0.670,1.255,0.885,0.404,0.707,0.671,�k�k��,5.6,��
2020/01/13,07:00,0.700,1.002,0.668,1.254,0.883,0.404,0.705,0.670,�k�k��,6.3,�L
2020/01/13,07:10,0.699,1.005,0.669,1.253,0.884,0.402,0.708,0.672,�k�k��,6.0,�L
2020/01/13,07:20,0.698,1.003,0.670,1.255,0.883,0.405,0.709,0.672,�k�k��,6.6,��
2020/01/13,07:30,0.701,1.004,0.666,1.253,0.885,0.404,0.706,0.671,�k�k��,6.1,��
2020/01/13,07:40,0.700,1.004,0.667,1.256,0.883,0.405,0.706,0.672,�k�k��,5.8,��
2020/01/13,07:50,0.699,1.003,0.668,1.255,0.883,0.405,0.708,0.672,�k�k��,6.0,��
2020/01/13,08:00,0.699,1.002,0.668,1.255,0.883,0.404,0.707,0.671,�k�k��,6.4,�L
2020/01/13,08:10,0.699,1.005,0.667,1.253,0.883,0.403,0.707,0.672,�k�k��,5.6,��
2020/01/13,08:20,0.700,1.006,0.669,1.257,0.884,0.404,0.707,0.673,�k�k��,6.0,��
2020/01/13,08:30,0.698,1.006,0.667,1.252,0.883,0.404,0.708,0.671,�k�k��,5.8,�L
2020/01/13,08:40,0.699,1.004,0.665,1.256,0.885,0.403,0.708,0.670,�k�k��,5.6,�L
2020/01/13,08:50,0.698,1.005,0.666,1.255,0.884,0.404,0.707,0.672,�k�k��,6.0,��
2020/01/13,09:00,0.699,1.003,0.663,1.255,0.885,0.404,0.705,0.673,�k�k��,5.8,��
2020/01/13,09:10,0.700,1.001,0.662,1.254,0.884,0.403,0.707,0.671,�k�k��,5.8,��
2020/01/13,09:20,0.699,1.004,0.662,1.256,0.885,0.403,0.707,0.670,�k�k��,5.8,��
2020/01/13,09:30,0.698,1.006,0.666,1.256,0.883,0.402,0.705,0.671,�k�k��,5.8,��
2020/01/13,09:40,0.700,1.005,0.662,1.254,0.885,0.403,0.704,0.672,�k�k��,4.4,��
2020/01/13,09:50,0.699,1.002,0.665,1.255,0.887,0.403,0.705,0.671,�k,4.0,��
2020/01/13,10:00,0.701,1.004,0.667,1.255,0.883,0.403,0.705,0.671,�k�k��,4.7,��
2020/01/13,10:10,0.700,1.004,0.667,1.255,0.887,0.405,0.708,0.673,�k�k��,5.2,��
2020/01/13,10:20,0.699,1.005,0.667,1.256,0.885,0.403,0.705,0.673,�k�k��,5.5,�L
2020/01/13,10:30,0.699,1.006,0.668,1.256,0.884,0.403,0.705,0.673,�k,5.3,��
2020/01/13,10:40,0.699,1.002,0.664,1.257,0.886,0.403,0.704,0.672,�k�k��,5.3,��
2020/01/13,10:50,0.699,1.001,0.666,1.255,0.885,0.403,0.705,0.672,�k,4.6,��
2020/01/13,11:00,0.700,1.000,0.668,1.256,0.882,0.403,0.704,0.673,�k,5.5,��
2020/01/13,11:10,0.701,1.001,0.663,1.256,0.886,0.403,0.705,0.672,�k�k��,6.3,��
2020/01/13,11:20,0.702,1.003,0.666,1.257,0.885,0.403,0.704,0.673,�k�k��,6.6,��
2020/01/13,11:30,0.701,0.999,0.664,1.256,0.885,0.403,0.704,0.673,�k�k��,6.9,��
2020/01/13,11:40,0.701,1.000,0.666,1.257,0.887,0.403,0.704,0.672,�k,6.3,��
2020/01/13,11:50,0.702,1.002,0.665,1.254,0.886,0.403,0.705,0.671,�k,9.1,��
2020/01/13,12:00,0.701,1.004,0.669,1.255,0.886,0.404,0.703,0.671,�k,8.3,��
2020/01/13,12:10,0.699,1.003,0.669,1.256,0.885,0.403,0.706,0.673,�k,6.6,��
2020/01/13,12:20,0.700,1.005,0.667,1.255,0.886,0.404,0.705,0.672,�k,6.3,��
2020/01/13,12:30,0.699,1.004,0.669,1.256,0.885,0.403,0.705,0.672,�k,7.8,��
2020/01/13,12:40,0.701,1.002,0.668,1.253,0.885,0.403,0.706,0.672,�k,8.8,��
2020/01/13,12:50,0.700,1.003,0.668,1.254,0.886,0.404,0.706,0.670,�k,8.0,��
2020/01/13,13:00,0.701,1.002,0.670,1.254,0.886,0.403,0.704,0.673,�k,9.1,��
2020/01/13,13:10,0.701,1.004,0.668,1.253,0.886,0.403,0.705,0.674,�k,8.5,��
2020/01/13,13:20,0.700,1.004,0.664,1.257,0.885,0.402,0.704,0.672,�k,6.9,��
2020/01/13,13:30,0.701,1.003,0.662,1.257,0.886,0.403,0.705,0.672,�k,7.4,��
2020/01/13,13:40,0.702,1.005,0.656,1.257,0.886,0.403,0.705,0.672,�k,7.4,��
2020/01/13,13:50,0.701,1.006,0.659,1.256,0.886,0.403,0.706,0.674,�k,8.5,��
2020/01/13,14:00,0.701,1.005,0.662,1.254,0.885,0.403,0.706,0.673,�k,6.9,��
2020/01/13,14:10,0.699,1.003,0.661,1.255,0.884,0.404,0.705,0.673,�k�k��,7.5,��
2020/01/13,14:20,0.701,1.008,0.656,1.256,0.887,0.402,0.705,0.673,�k,6.3,��
2020/01/13,14:30,0.702,1.004,0.660,1.254,0.885,0.403,0.705,0.672,�k,6.6,��
2020/01/13,14:40,0.703,1.007,0.659,1.256,0.888,0.404,0.704,0.672,�k,5.8,��
2020/01/13,14:50,0.701,1.007,0.665,1.255,0.887,0.404,0.706,0.673,�k,6.4,��
2020/01/13,15:00,0.701,1.007,0.667,1.257,0.887,0.402,0.706,0.672,�k,6.6,��
2020/01/13,15:10,0.701,1.003,0.669,1.255,0.886,0.402,0.707,0.672,�k,7.7,��
2020/01/13,15:20,0.699,1.006,0.667,1.255,0.888,0.403,0.705,0.673,�k,8.0,��
2020/01/13,15:30,0.701,1.006,0.669,1.256,0.886,0.401,0.704,0.672,�k,6.3,��
2020/01/13,15:40,0.699,1.007,0.669,1.258,0.886,0.403,0.706,0.674,�k,4.6,��
2020/01/13,15:50,0.702,1.008,0.662,1.255,0.885,0.403,0.708,0.673,�k,6.6,��
2020/01/13,16:00,0.699,1.007,0.663,1.256,0.886,0.402,0.707,0.671,�k,5.2,��
2020/01/13,16:10,0.701,1.008,0.665,1.252,0.888,0.404,0.706,0.671,�k,5.5,��
2020/01/13,16:20,0.700,1.007,0.666,1.255,0.885,0.403,0.707,0.672,�k,3.9,��
2020/01/13,16:30,0.699,1.009,0.667,1.253,0.886,0.404,0.707,0.672,�k�k��,4.3,��
2020/01/13,16:40,0.699,1.007,0.668,1.255,0.884,0.403,0.707,0.671,�k�k��,4.7,��
2020/01/13,16:50,0.700,1.007,0.669,1.254,0.885,0.403,0.708,0.673,�k�k��,4.5,��
2020/01/13,17:00,0.699,1.008,0.666,1.254,0.885,0.402,0.707,0.670,�k�k��,4.9,��
2020/01/13,17:10,0.702,1.007,0.667,1.254,0.885,0.402,0.706,0.671,�k�k��,5.0,��
2020/01/13,17:20,0.699,1.006,0.670,1.257,0.888,0.403,0.706,0.671,�k�k��,4.7,��
2020/01/13,17:30,0.697,1.004,0.667,1.256,0.885,0.401,0.707,0.671,�k�k��,4.4,��
2020/01/13,17:40,0.698,1.004,0.666,1.255,0.883,0.401,0.706,0.672,�k�k��,4.6,��
2020/01/13,17:50,0.699,1.006,0.664,1.252,0.883,0.400,0.706,0.672,�k�k��,4.3,��
2020/01/13,18:00,0.699,1.006,0.666,1.253,0.885,0.403,0.705,0.670,�k�k��,4.5,��
2020/01/13,18:10,0.698,1.007,0.667,1.254,0.887,0.402,0.706,0.671,�k�k��,4.6,��
2020/01/13,18:20,0.699,1.006,0.666,1.255,0.886,0.404,0.706,0.670,�k�k��,5.6,��
2020/01/13,18:30,0.697,1.007,0.666,1.253,0.885,0.403,0.706,0.671,�k��,5.0,��
2020/01/13,18:40,0.698,1.006,0.667,1.252,0.884,0.401,0.706,0.672,�k��,5.2,��
2020/01/13,18:50,0.698,1.008,0.667,1.255,0.886,0.403,0.705,0.671,�k��,5.8,��
2020/01/13,19:00,0.699,1.007,0.669,1.256,0.885,0.401,0.706,0.670,�k��,5.8,��
2020/01/13,19:10,0.698,1.005,0.667,1.255,0.885,0.402,0.707,0.670,�k��,5.2,��
2020/01/13,19:20,0.698,1.005,0.668,1.253,0.885,0.402,0.706,0.672,�k��,4.3,��
2020/01/13,19:30,0.699,1.007,0.667,1.252,0.883,0.401,0.706,0.673,�k�k��,4.3,��
2020/01/13,19:40,0.697,1.003,0.668,1.254,0.886,0.401,0.705,0.671,�k��,3.6,��
2020/01/13,19:50,0.697,1.007,0.665,1.255,0.885,0.403,0.705,0.670,�k��,3.2,��
2020/01/13,20:00,0.698,1.007,0.666,1.255,0.885,0.403,0.705,0.673,���k��,3.1,��
2020/01/13,20:10,0.697,1.006,0.667,1.255,0.886,0.402,0.706,0.671,�k��,2.8,��
2020/01/13,20:20,0.697,1.008,0.667,1.256,0.885,0.403,0.707,0.670,���k��,2.6,��
2020/01/13,20:30,0.698,1.007,0.667,1.256,0.886,0.403,0.706,0.672,�k��,2.6,��
2020/01/13,20:40,0.698,1.005,0.668,1.255,0.884,0.401,0.706,0.671,�k�k��,2.9,��
2020/01/13,20:50,0.698,1.007,0.666,1.256,0.883,0.404,0.706,0.670,�k�k��,3.3,��
2020/01/13,21:00,0.698,1.007,0.668,1.256,0.885,0.403,0.706,0.671,�k�k��,4.0,��
2020/01/13,21:10,0.698,1.005,0.667,1.255,0.885,0.401,0.706,0.671,�k��,3.8,��
2020/01/13,21:20,0.697,1.005,0.667,1.254,0.884,0.401,0.705,0.670,�k��,3.9,��
2020/01/13,21:30,0.699,1.004,0.667,1.257,0.886,0.402,0.706,0.671,�k��,3.8,��
2020/01/13,21:40,0.697,1.006,0.667,1.255,0.883,0.402,0.704,0.672,�k��,2.7,��
2020/01/13,21:50,0.699,1.006,0.666,1.254,0.884,0.401,0.706,0.669,�k�k��,3.8,��
2020/01/13,22:00,0.697,1.008,0.667,1.256,0.885,0.404,0.706,0.671,�k��,3.8,�L
2020/01/13,22:10,0.700,1.006,0.668,1.259,0.887,0.406,0.706,0.672,�k��,4.6,�L
2020/01/13,22:20,0.703,1.008,0.672,1.258,0.888,0.408,0.707,0.673,���k��,4.9,�L
2020/01/13,22:30,0.703,1.011,0.672,1.259,0.889,0.408,0.708,0.672,�k��,4.7,�L
2020/01/13,22:40,0.702,1.007,0.672,1.260,0.889,0.408,0.708,0.673,�k��,3.6,�L
2020/01/13,22:50,0.702,1.007,0.672,1.261,0.888,0.409,0.708,0.671,�k�k��,3.8,�L
2020/01/13,23:00,0.702,1.005,0.672,1.261,0.885,0.410,0.707,0.672,�k��,4.1,�L
2020/01/13,23:10,0.701,1.004,0.670,1.256,0.886,0.408,0.709,0.672,�k��,4.9,��
2020/01/13,23:20,0.700,1.003,0.670,1.256,0.885,0.407,0.708,0.670,�k��,6.3,�L
2020/01/13,23:30,0.700,1.002,0.669,1.256,0.883,0.406,0.708,0.671,�k��,7.1,�L
2020/01/13,23:40,0.700,1.002,0.669,1.256,0.883,0.406,0.708,0.672,�k��,6.7,�L
2020/01/13,23:50,0.700,1.005,0.669,1.255,0.884,0.407,0.708,0.671,�k��,6.6,�L
